Location: Neuvy Saint Sepulchre
(46.5953°N, 1.8122°E)
Time: 19:06:50
(UTC+01:00)

ISS - Pass Details

Date: 28 November 2021
Orbit: 417 x 422 km, 51.6° (Epoch: 06 December)

Event Time Altitude Azimuth Distance (km) Brightness Sun altitude
Rises 19:26:52 0° 289° (WNW) 2,378 1.1 -23.1°
Reaches altitude 10° 19:29:06 10° 299° (WNW) 1,512 -0.2 -23.5°
Enters shadow 19:30:57 25° 322° (NW) 893 -1.8 -23.8°
